Weather History for Dryden, ON

Change the Weather History Date:

Wednesday, March 13, 2013

  Actual Average Record
Temperature  
Mean Temperature 14 °F -  
Max Temperature 28 °F 45 °F 50 °F (2012)
Min Temperature 0 °F 28 °F -4 °F (2003)
Degree Days  
Heating Degree Days 51    
Moisture  
Dew Point 4 °F    
Average Humidity 62    
Maximum Humidity 85    
Minimum Humidity 43    
Precipitation  
Precipitation 0.00 in 0.11 in - ()
Sea Level Pressure  
Sea Level Pressure 30.30 in    
Wind  
Wind Speed 4 mph ()    
Max Wind Speed 9 mph    
Max Gust Speed -    
Visibility 9.0 miles    
Events      
Averages and records for this station are not official NWS values.
T = Trace of Precipitation, MM = Missing Value Source: Averaged Metar Reports

Daily Weather History Graph

Daily Weather History Graph

Search for Another Location

Airport:

Trip Planner

Search our weather history database for the weather conditions in past years. The results will help you decide how hot, cold, wet, or windy it might be!

Date:

Astronomy

Mar. 13, 2013 Rise Set
Actual Time 7:28 AM CDT 7:13 PM CDT
Civil Twilight 6:56 AM CDT 7:45 PM CDT
Nautical Twilight 6:18 AM CDT 8:22 PM CDT
Astronomical Twilight 5:40 AM CDT 9:01 PM CDT
Moon 7:53 AM CDT (3/13) 9:48 PM CDT (3/13)
Length of Visible Light 12h 49m
Length of Day
11h 45m
Waxing Crescent, 4% of the Moon is Illuminated
Mar 13
Waxing Crescent
Mar 19
First Quarter
Mar 27
Full
Apr 2
Last Quarter
Apr 10
New

Hourly Weather History & Observations

Time (CDT) Temp. Windchill Dew Point Humidity Pressure Visibility Wind Dir Wind Speed Gust Speed Precip Events Conditions
12:00 AM 14.0 °F 5.1 °F 1.4 °F 57% 30.24 in 9.0 mi North 5.8 mph - N/A   Clear
1:00 AM 10.4 °F 4.0 °F 1.4 °F 67% 30.25 in 9.0 mi NNE 3.5 mph - N/A   Clear
2:00 AM 10.4 °F 4.0 °F 1.4 °F 67% 30.26 in 9.0 mi North 3.5 mph - N/A   Clear
3:00 AM 8.6 °F 2.0 °F -0.4 °F 67% 30.27 in 9.0 mi North 3.5 mph - N/A   Clear
4:00 AM 6.8 °F -2.0 °F -0.4 °F 72% 30.29 in 9.0 mi North 4.6 mph - N/A   Clear
5:00 AM 6.8 °F -0.1 °F -0.4 °F 72% 30.30 in 9.0 mi NNE 3.5 mph - N/A   Clear
6:00 AM 5.0 °F -4.1 °F -0.4 °F 78% 30.32 in 9.0 mi NNE 4.6 mph - N/A   Clear
7:00 AM -0.4 °F -10.4 °F -4.0 °F 85% 30.34 in 9.0 mi NE 4.6 mph - N/A   Clear
8:00 AM 3.2 °F - -0.4 °F 85% 30.35 in 9.0 mi NE 2.3 mph - N/A   Clear
9:00 AM 5.0 °F - -0.4 °F 78% 30.35 in 9.0 mi Calm Calm - N/A   Scattered Clouds
10:00 AM 8.6 °F 2.0 °F 1.4 °F 73% 30.36 in 9.0 mi ENE 3.5 mph - N/A   Overcast
11:00 AM 14.0 °F 8.2 °F 5.0 °F 67% 30.36 in 9.0 mi SE 3.5 mph - N/A   Scattered Clouds
12:00 PM 19.4 °F 14.3 °F 5.0 °F 54% 30.35 in 9.0 mi West 3.5 mph - N/A   Unknown
1:00 PM 23.0 °F - 6.8 °F 50% 30.35 in 9.0 mi Calm Calm - N/A   Clear
2:00 PM 24.8 °F 20.5 °F 8.6 °F 50% 30.33 in 9.0 mi Variable 3.5 mph - N/A   Clear
3:00 PM 26.6 °F 22.6 °F 8.6 °F 47% 30.31 in 9.0 mi West 3.5 mph - N/A   Clear
4:00 PM 28.4 °F 19.7 °F 8.6 °F 43% 30.30 in 9.0 mi WSW 9.2 mph - N/A   Clear
5:00 PM 26.6 °F 21.2 °F 10.4 °F 51% 30.29 in 9.0 mi WNW 4.6 mph - N/A   Clear
6:00 PM 26.6 °F 21.2 °F 8.6 °F 47% 30.28 in 9.0 mi WNW 4.6 mph - N/A   Clear
7:00 PM 26.6 °F - 8.6 °F 47% 30.27 in 9.0 mi Calm Calm - N/A   Clear
8:00 PM 24.8 °F 20.5 °F 8.6 °F 50% 30.26 in 9.0 mi East 3.5 mph - N/A   Partly Cloudy
9:00 PM 21.2 °F 12.6 °F 8.6 °F 58% 30.26 in 9.0 mi SSE 6.9 mph - N/A   Clear
10:00 PM 19.4 °F 11.5 °F 8.6 °F 63% 30.26 in 9.0 mi South 5.8 mph - N/A   Clear
11:00 PM 19.4 °F 9.5 °F 8.6 °F 63% 30.24 in 9.0 mi SSE 8.1 mph - N/A   Clear